Location: Carrières
(48.9495°N, 2.0407°E)
Time: 08:52:58
(UTC+00:00)

IRIDIUM 103 - Pass Details

Date: 28 January 2023
Orbit: 776 x 779 km, 86.4° (Epoch: 22 March)

Event Time Altitude Azimuth Distance (km) Brightness Sun altitude
Rises 18:43:58 0° 360° (N) 3,277 7.5 -19.9°
Reaches altitude 10° 18:46:24 10° 5° (N) 2,344 6.7 -20.3°
Maximum altitude 18:51:30 50° 81° (E) 989 4.4 -21.1°
Enters shadow 18:53:22 34° 134° (SE) 1,259 5.0 -21.5°
Exits shadow 18:58:10 - 161° (SSE) 2,939 7.2 -22.2°
Sets 18:58:58 0° 162° (SSE) 3,249 7.4 -22.4°
